TANSEI 3 (MS-T3)

导读

TANSEI 3(MS-T3)是由日本宇宙科学研究所(ISAS)运营的技术试验卫星,于1977年2月19日成功发射。卫星总质量约134千克,属于日本早期空间技术演示任务,旨在验证相关航天技术,推动日本空间科学领域发展。作为Tansei系列卫星的成员,它为日本后续卫星研发和空间探索积累了宝贵工程经验,在日本航天发展历程中具有标志性意义。

基本信息
目录编号:
9841
目录名称:
TANSEI 3 (MS-T3)
国际标识:
1977-012A
轨道中心:
EARTH
卫星名称:
TANSEI 3 (MS-T3)
卫星全名:
--
卫星状态:
在轨 (已飞行18013 天)
发射日期:
1977-02-19 UTC
国别 :
日本 (JP)
星等 :
--
轨道信息
数据来源 国际轨道数据 AOE轨道数据
星历时间 2026-06-15T03:13:24+0800
9小时前
查看轨道信息
2026-06-15T08:00:00+0800
5小时前
查看轨道信息
半长轴 8678.015km 8678.011km
偏心率 0.1733633 0.1733128
轨道倾角 65.758° 65.756°
近地点辐角 258.417° 258.374°
升交点赤经 205.099° 204.805°
平近点角 81.796° 131.235°
近地点 795.428km 795.863km
远地点 3804.328km 3803.885km
周期 134.088分钟 134.088分钟
每日圈数 10.739207 10.739214
详细信息
使用方式:
暂无
2D轨道图
3D轨道图
轨道高度分析图
轨道倾角分析图
轨道综合分析图
查看轨道综合分析图